Change the Weather History Date:

Sunday, April 21, 2013

  Actual Average Record
Temperature  
Mean Temperature 33 °F 40 °F  
Max Temperature 47 °F 53 °F 76 °F (1906)
Min Temperature 18 °F 27 °F 3 °F (2008)
Degree Days  
Heating Degree Days 32 25  
Month to date heating degree days 627 570  
Since 1 July heating degree days 8042 8181  
Cooling Degree Days 0 0  
Month to date cooling degree days 0 0  
Year to date cooling degree days 0 0  
Moisture  
Dew Point 20 °F    
Average Humidity 61    
Maximum Humidity 84    
Minimum Humidity 37    
Precipitation  
Precipitation 0.03 in 0.04 in 0.37 in (1947)
Month to date precipitation 0.22 0.78  
Year to date precipitation 0.88 2.44  
Snow  
Snow 0.00 in - - ()
Snow Depth 0.00 in    
Sea Level Pressure  
Sea Level Pressure 30.05 in    
Wind  
Wind Speed 8 mph (WNW)    
Max Wind Speed 18 mph    
Max Gust Speed 25 mph    
Visibility 5 miles    
Events Fog , Snow    
T = Trace of Precipitation, MM = Missing Value Source: NWS Daily Summary

Daily Weather History Graph

Daily Weather History Graph

Search for Another Location

Airport or City:

Trip Planner

Search our weather history database for the weather conditions in past years. The results will help you decide how hot, cold, wet, or windy it might be!

Date:

Astronomy

Apr. 21, 2013 Rise Set
Actual Time 6:32 AM MDT 8:25 PM MDT
Civil Twilight 6:00 AM MDT 8:57 PM MDT
Nautical Twilight 5:21 AM MDT 9:36 PM MDT
Astronomical Twilight 4:39 AM MDT 10:19 PM MDT
Moon 4:02 PM MDT (4/21) 4:11 AM MDT (4/21)
Length of Visible Light 14h 56m
Length of Day
13h 52m
Waxing Gibbous, 80% of the Moon is Illuminated
Apr 21
Waxing Gibbous
Apr 25
Full
May 2
Last Quarter
May 9
New
May 17
First Quarter

Hourly Weather History & Observations

Time (MDT) Temp. Windchill Dew Point Humidity Pressure Visibility Wind Dir Wind Speed Gust Speed Precip Events Conditions
12:53 AM 36.0 °F 33.3 °F 23.0 °F 59% 30.01 in 10.0 mi NNW 3.5 mph - N/A   Mostly Cloudy
1:53 AM 35.1 °F - 23.0 °F 61% 30.02 in 10.0 mi Calm Calm - N/A   Scattered Clouds
2:53 AM 37.9 °F 34.4 °F 21.9 °F 53% 30.01 in 10.0 mi Variable 4.6 mph - N/A   Overcast
3:53 AM 37.9 °F 30.5 °F 23.0 °F 55% 29.99 in 10.0 mi West 11.5 mph - N/A   Overcast
4:53 AM 37.9 °F 30.9 °F 21.9 °F 53% 29.99 in 10.0 mi WSW 10.4 mph 18.4 mph N/A   Overcast
5:53 AM 37.0 °F 32.4 °F 21.9 °F 54% 30.00 in 10.0 mi WSW 5.8 mph - N/A   Overcast
6:53 AM 37.0 °F 32.4 °F 21.9 °F 54% 30.01 in 10.0 mi WSW 5.8 mph - N/A   Overcast
7:53 AM 36.0 °F 30.3 °F 25.0 °F 64% 30.03 in 3.0 mi WNW 6.9 mph 16.1 mph 0.00 in Snow Light Snow
8:53 AM 37.9 °F 33.5 °F 25.0 °F 60% 30.02 in 10.0 mi Variable 5.8 mph - 0.00 in   Overcast
9:53 AM 39.9 °F 35.1 °F 23.0 °F 51% 30.00 in 10.0 mi NW 6.9 mph - N/A   Overcast
10:53 AM 41.0 °F 38.0 °F 26.1 °F 55% 29.99 in 10.0 mi NE 4.6 mph - N/A   Overcast
11:53 AM 42.1 °F 38.4 °F 26.1 °F 53% 29.98 in 10.0 mi NNW 5.8 mph - 0.00 in   Overcast
12:53 PM 43.0 °F 40.3 °F 26.1 °F 51% 29.95 in 10.0 mi East 4.6 mph - 0.00 in   Overcast
1:53 PM 45.0 °F 42.6 °F 21.9 °F 40% 29.92 in 10.0 mi North 4.6 mph - N/A   Overcast
2:53 PM 46.0 °F 40.2 °F 21.0 °F 37% 29.91 in 10.0 mi West 12.7 mph 19.6 mph N/A   Mostly Cloudy
3:53 PM 41.0 °F 32.8 °F 26.1 °F 55% 29.93 in 10.0 mi West 16.1 mph - N/A   Clear
4:53 PM 37.9 °F 30.9 °F 27.0 °F 65% 29.95 in 10.0 mi West 10.4 mph - N/A   Mostly Cloudy
5:53 PM 37.9 °F 31.5 °F 27.0 °F 65% 29.97 in 10.0 mi NNW 9.2 mph - 0.00 in   Scattered Clouds
6:53 PM 32.0 °F 23.0 °F 21.9 °F 66% 30.02 in 10.0 mi WNW 11.5 mph 20.7 mph N/A   Overcast
7:42 PM 24.8 °F 13.4 °F 19.4 °F 80% 30.02 in 1.5 mi West 12.7 mph 23.0 mph 0.00 in Snow Light Snow
7:46 PM 24.8 °F 15.3 °F 19.4 °F 80% 30.02 in 0.8 mi West 9.2 mph 23.0 mph 0.00 in Snow Light Snow
7:53 PM 24.1 °F 13.7 °F 19.9 °F 84% 30.12 in 0.8 mi WNW 10.4 mph - 0.00 in Snow Light Snow
8:01 PM 24.8 °F 14.0 °F 19.4 °F 80% 30.03 in 1.5 mi WNW 11.5 mph 18.4 mph 0.00 in Snow Light Snow
8:17 PM 21.2 °F 10.1 °F 19.4 °F 93% 30.04 in 3.0 mi SW 10.4 mph - 0.00 in Snow Light Snow
8:25 PM 23.0 °F 12.4 °F 19.4 °F 86% 30.03 in 6.0 mi WNW 10.4 mph 25.3 mph 0.00 in Snow Light Snow
8:53 PM 24.1 °F 19.7 °F 19.0 °F 81% 30.13 in 7.0 mi NNW 3.5 mph - 0.00 in Snow Light Snow
9:04 PM 21.2 °F 12.6 °F 17.6 °F 86% 30.06 in 4.0 mi Variable 6.9 mph 18.4 mph 0.00 in Snow Light Snow
9:08 PM 21.2 °F 9.5 °F 17.6 °F 86% 30.07 in 1.8 mi WNW 11.5 mph 18.4 mph 0.01 in Snow Light Snow
9:15 PM 21.2 °F 8.3 °F 17.6 °F 86% 30.07 in 1.0 mi WNW 13.8 mph 18.4 mph 0.01 in Snow Light Snow
9:22 PM 21.2 °F 12.6 °F 17.6 °F 86% 30.07 in 0.5 mi NNW 6.9 mph 17.3 mph 0.02 in Fog , Snow Snow
9:46 PM 21.2 °F 11.7 °F 17.6 °F 86% 30.09 in 1.0 mi WNW 8.1 mph - 0.02 in Snow Light Snow
9:53 PM 21.0 °F 14.6 °F 17.1 °F 85% 30.17 in 1.5 mi West 4.6 mph - 0.02 in Snow Light Snow
10:00 PM 21.2 °F 13.6 °F 17.6 °F 86% 30.08 in 1.5 mi WNW 5.8 mph - 0.00 in Snow Light Snow
10:11 PM 21.2 °F 10.9 °F 17.6 °F 86% 30.09 in 2.5 mi WSW 9.2 mph - 0.00 in Snow Light Snow
10:23 PM 19.4 °F 8.6 °F 15.8 °F 86% 30.10 in 3.0 mi West 9.2 mph - 0.00 in Snow Light Snow
10:38 PM 19.4 °F 10.4 °F 15.8 °F 86% 30.10 in 3.0 mi West 6.9 mph - 0.00 in Snow Light Snow
10:48 PM 19.4 °F 9.5 °F 15.8 °F 86% 30.11 in 2.5 mi WNW 8.1 mph - 0.00 in Snow Light Snow
10:53 PM 19.0 °F 10.0 °F 16.0 °F 88% 30.20 in 2.0 mi WNW 6.9 mph - 0.00 in Snow Light Snow
11:01 PM 19.4 °F 9.5 °F 15.8 °F 86% 30.11 in 1.5 mi WNW 8.1 mph - 0.00 in Snow Light Snow
11:15 PM 19.4 °F 9.5 °F 15.8 °F 86% 30.11 in 1.2 mi NNW 8.1 mph - 0.01 in Snow Light Snow
11:28 PM 19.4 °F 10.4 °F 15.8 °F 86% 30.12 in 1.2 mi North 6.9 mph - 0.01 in Snow Light Snow
11:38 PM 19.4 °F - 15.8 °F 86% 30.11 in 1.0 mi Calm Calm - 0.01 in Snow Light Snow
11:46 PM 19.4 °F - 17.6 °F 93% 30.11 in 1.0 mi Calm Calm - 0.01 in Snow Light Snow
11:53 PM 19.0 °F - 15.1 °F 85% 30.20 in 1.2 mi Calm Calm - 0.01 in Snow Light Snow